OK1PHU-5 Weather Reports


Display with metric or nautical units.
time (UTC)temp
F
wind
direction
speed
MPH
gust
MPH
rain 1hr
in
rain 24hr
in
rain mn
in
humidity
%
barometer
mb
20260504234247 0 0 0.0 0.0 0.00 0.00 0.00 69 1008.7
20260504233247 0 0 0.0 0.0 0.00 0.00 0.00 69 1008.7
20260504232247 0 0 0.0 0.0 0.00 0.00 0.00 69 1008.7
20260504231247 0 0 0.0 0.0 0.00 0.00 0.00 69 1008.9
20260504230246 0 0 0.0 0.0 0.00 0.00 0.00 69 1008.9
20260504225243 0 0 0.0 0.0 0.00 0.00 0.00 69 1009.0
20260504224243 0 0 0.0 0.0 0.00 0.00 0.00 69 1009.1
20260504223243 0 0 0.0 0.0 0.00 0.00 0.00 69 1009.1
20260504222243 0 0 0.0 0.0 0.00 0.00 0.00 69 1009.1
20260504221243 0 0 0.0 0.0 0.00 0.00 0.00 70 1009.2
20260504220243 0 0 0.0 0.0 0.00 0.00 0.00 71 1009.4
20260504214240 0 0 0.0 0.0 0.00 0.00 0.00 73 1009.6
20260504213240 0 0 0.0 0.0 0.00 0.00 0.00 73 1009.5
20260504212240 0 0 0.0 0.0 0.00 0.00 0.00 73 1009.7
20260504211240 0 0 0.0 0.0 0.00 0.00 0.00 72 1009.7
20260504210240 0 0 0.0 0.0 0.00 0.00 0.00 72 1009.8
20260504205237 0 0 0.0 0.0 0.00 0.00 0.00 72 1009.8
20260504204237 0 0 0.0 0.0 0.00 0.00 0.00 73 1009.8
20260504203237 0 0 0.0 0.0 0.00 0.00 0.00 73 1009.9
20260504202237 0 0 0.0 0.0 0.00 0.00 0.00 73 1009.6
20260504201237 0 0 0.0 0.0 0.00 0.00 0.00 74 1009.7
20260504200237 0 0 0.0 0.0 0.00 0.00 0.00 76 1009.6
20260504194234 0 0 0.0 0.0 0.00 0.00 0.00 80 1009.9
20260504193233 0 0 0.0 0.0 0.00 0.00 0.00 82 1009.9
20260504192233 0 0 0.0 0.0 0.00 0.00 0.00 82 1009.9
20260504191233 0 0 0.0 0.0 0.00 0.00 0.00 84 1009.9
20260504190233 0 0 0.0 0.0 0.00 0.00 0.00 87 1009.9
20260504185230 0 0 0.0 0.0 0.00 0.00 0.00 86 1009.8
20260504184230 0 0 0.0 0.0 0.00 0.00 0.00 87 1009.7
20260504183230 0 0 0.0 0.0 0.00 0.00 0.00 84 1009.5
20260504182230 0 0 0.0 0.0 0.00 0.00 0.00 82 1009.5
20260504181230 0 0 0.0 0.0 0.00 0.00 0.00 80 1009.2
20260504180231 0 0 0.0 0.0 0.00 0.00 0.00 76 1009.1
20260504174227 0 0 0.0 0.0 0.00 0.00 0.00 70 1008.8
20260504173227 0 0 0.0 0.0 0.00 0.00 0.00 68 1008.8
20260504172227 0 0 0.0 0.0 0.00 0.00 0.00 67 1008.6
20260504171227 0 0 0.0 0.0 0.00 0.00 0.00 67 1008.6
20260504170227 0 0 0.0 0.0 0.00 0.00 0.00 68 1008.5
20260504160224 0 0 0.0 0.0 0.00 0.00 0.00 66 1008.7
20260504150220 0 0 0.0 0.0 0.00 0.00 0.00 65 1008.7
20260504141217 0 0 0.0 0.0 0.00 0.00 0.00 66 1009.3
20260504140217 0 0 0.0 0.0 0.00 0.00 0.00 66 1009.2
20260504130214 0 0 0.0 0.0 0.00 0.00 0.00 65 1009.4
20260504120210 0 0 0.0 0.0 0.00 0.00 0.00 66 1009.7
20260504110207 0 0 0.0 0.0 0.00 0.00 0.00 65 1010.2
20260504100204 0 0 0.0 0.0 0.00 0.00 0.00 66 1010.8
20260504081157 0 0 0.0 0.0 0.00 0.00 0.00 61 1010.5
20260504080157 0 0 0.0 0.0 0.00 0.00 0.00 63 1010.2
20260504070154 0 0 0.0 0.0 0.00 0.00 0.00 66 1010.9
20260504060151 0 0 0.0 0.0 0.00 0.00 0.00 64 1010.6
20260504050148 0 0 0.0 0.0 0.00 0.00 0.00 74 1011.8
20260504044144 0 0 0.0 0.0 0.00 0.00 0.00 76 1011.7
20260504043144 0 0 0.0 0.0 0.00 0.00 0.00 80 1011.8
20260504042144 0 0 0.0 0.0 0.00 0.00 0.00 81 1011.6
20260504041144 0 0 0.0 0.0 0.00 0.00 0.00 80 1011.7
20260504040144 0 0 0.0 0.0 0.00 0.00 0.00 81 1011.7
20260504035141 0 0 0.0 0.0 0.00 0.00 0.00 80 1011.7
20260504034141 0 0 0.0 0.0 0.00 0.00 0.00 80 1011.6
20260504033141 0 0 0.0 0.0 0.00 0.00 0.00 80 1011.6
20260504032141 0 0 0.0 0.0 0.00 0.00 0.00 80 1011.6
20260504031141 0 0 0.0 0.0 0.00 0.00 0.00 79 1011.6
20260504030141 0 0 0.0 0.0 0.00 0.00 0.00 79 1011.6
20260504025138 0 0 0.0 0.0 0.00 0.00 0.00 78 1011.6
20260504024138 0 0 0.0 0.0 0.00 0.00 0.00 78 1011.7
20260504023138 0 0 0.0 0.0 0.00 0.00 0.00 78 1011.8
20260504022138 0 0 0.0 0.0 0.00 0.00 0.00 77 1011.6
20260504021138 0 0 0.0 0.0 0.00 0.00 0.00 77 1011.7
20260504020138 0 0 0.0 0.0 0.00 0.00 0.00 77 1011.7
20260504014135 0 0 0.0 0.0 0.00 0.00 0.00 76 1011.8
20260504013135 0 0 0.0 0.0 0.00 0.00 0.00 75 1011.8
20260504012134 0 0 0.0 0.0 0.00 0.00 0.00 74 1011.6
20260504011134 0 0 0.0 0.0 0.00 0.00 0.00 74 1011.3
20260504010134 0 0 0.0 0.0 0.00 0.00 0.00 74 1011.6
20260504005131 0 0 0.0 0.0 0.00 0.00 0.00 73 1011.6
20260504004131 0 0 0.0 0.0 0.00 0.00 0.00 73 1011.4
20260504003131 0 0 0.0 0.0 0.00 0.00 0.00 72 1011.5
20260504002131 0 0 0.0 0.0 0.00 0.00 0.00 71 1011.6
20260504001131 0 0 0.0 0.0 0.00 0.00 0.00 71 1011.7
20260504000131 0 0 0.0 0.0 0.00 0.00 0.00 70 1011.6
20260503235128 0 0 0.0 0.0 0.00 0.00 0.00 70 1011.6